Location: Monte Entu
(40.0333°N, 8.5333°E)
Time: 04:01:45
(UTC+00:00)

Cosmos 2333 - Pass Details

Date: 09 February 2023
Orbit: 828 x 867 km, 70.9° (Epoch: 23 March)

Event Time Altitude Azimuth Distance (km) Brightness Sun altitude
Rises 17:10:59 0° 202° (SSW) 3,357 7.9 -3.9°
Reaches altitude 10° 17:13:24 10° 202° (SSW) 2,430 7.2 -4.4°
Maximum altitude 17:18:59 89° 288° (WNW) 842 4.3 -5.4°
Drops below altitude 10° 17:24:39 10° 23° (NNE) 2,468 6.3 -6.4°
Sets 17:27:07 0° 24° (NNE) 3,413 7.0 -6.9°
